Location: Lake Lucerne
(45.5315°N, 88.8489°W)
Time: 21:35:03
(UTC-05:00)

ARIANE 6 FM1 Upper Stage - Pass Details

Date: 28 September 2024
Orbit: 563 x 594 km, 62.0° (Epoch: 09 October)

Event Time Altitude Azimuth Distance (km) Brightness Sun altitude
Rises 20:15:57 0° 266° (W) 2,788 7.6 -17.5°
Reaches altitude 10° 20:18:44 10° 285° (WNW) 1,899 6.7 -17.9°
Maximum altitude 20:21:49 19° 331° (NNW) 1,422 5.2 -18.5°
Drops below altitude 10° 20:24:56 10° 17° (NNE) 1,919 5.4 -19.0°
Enters shadow 20:27:04 - 32° (NNE) 2,587 5.9 -19.3°
